Other Public Products
Issued by NWS Charleston, SC

Home | Current Version | Previous Version | Text Only | Print | Product List | Glossary On
Versions: 1 2 3 4 5 6 7 8 9 10 11 12 13 14 15 16 17 18 19 20 21 22 23 24 25 26 27 28 29 30 31 32 33 34 35 36 37 38 39 40 41 42 43 44 45 46 47 48 49 50
562
FPUS82 KCHS 240827
OPUCHS

TEST...KCHS/KSAV Gateway Observations...TEST
National Weather Service Charleston SC
400 AM EDT WED MAY 24 2017

NOTE: "fair" indicates few or no clouds below 12,000 feet with no
significant weather and/or obstructions to visibility.

SCZ050-WAZ558-NCZ071-TXZ119-213-PAZ071-DCZ001-FLZ074-172-MI076-
NYZ176-178-MAZ016-IL014-TNZ027-NJZ106-GAZ044-MD014-240900-

...Gateway Observations for Charleston International...

CITY           SKY/WX    TMP DP  RH WIND       PRES   REMARKS
Chas Airport   CLOUDY    71  69  93 SW5       29.68F
Seattle        CLOUDY    53  35  50 NE14      30.06S
Charlotte      CLOUDY    65  62  90 S8        29.65S
Dallas DFW     CLEAR     61  50  67 W12       29.82F
Dallas Love    CLEAR     58  51  78 CALM      29.84F
Philladelphia  CLOUDY    57  51  80 E7        29.72F
Wash National  LGT RAIN  59  57  93 NE8       29.71F
Baltimore      LGT RAIN  58  58 100 E6        29.70F
Miami          MOCLDY    80  75  84 S5        29.88F
Detroit        CLOUDY    60  52  74 NE10      29.64F
Newark         CLOUDY    60  49  66 SE7       29.74S
Laguardia      CLOUDY    61  49  64 SE7       29.74F
J F K          LGT RAIN  58  54  86 SE5       29.76S
Boston Logan   CLOUDY    56  54  93 S3        29.78F
Ft. Lauderdale MOCLDY    81  74  79 S8        29.87S
Chicago O`Hare LGT RAIN  54  52  93 NE7       29.62F
Chicago Midway LGT RAIN  56  54  93 NE9       29.61F FOG
Houston Bush   CLEAR     61  57  87 NW6       29.84F
Houston Hobby  PTCLDY    63  57  81 NW10      29.84F
Nashville      CLOUDY    66  60  81 CALM      29.58F
Atlanta        CLOUDY    66  64  93 S7        29.65F

$$

GAZ044-118-TXZ119-213-NCZ071-DCZ001-MDZ014-506-PAZ021-071-NJZ106-
NYZ176-178-MAZ106-OHZ011-021-055-MIZ076-KYZ091-ILZ014-INZ047-
MNZ060-ONZ431-240900-

...Gateway Observations for Savannah International...

CITY           SKY/WX    TMP DP  RH WIND       PRES   REMARKS
Savannah Arpt  MOCLDY    73  68  84 SW10      29.70F
Atlanta        CLOUDY    66  64  93 S7        29.65F
Charlotte      CLOUDY    65  62  90 S8        29.65S
Dallas DFW     CLEAR     61  50  67 W12       29.82F
Houston Bush   CLEAR     61  57  87 NW6       29.84F
Wash National  LGT RAIN  59  57  93 NE8       29.71F
Wash Dulles    LGT RAIN  58  57  97 SE6       29.71S FOG
Baltimore      LGT RAIN  58  58 100 E6        29.70F
Philadelphia   CLOUDY    57  51  80 E7        29.72F
Newark         CLOUDY    60  49  66 SE7       29.74S
Laguardia      CLOUDY    61  49  64 SE7       29.74F
J F K          LGT RAIN  58  54  86 SE5       29.76S
Boston         CLOUDY    56  54  93 S3        29.78F
Pittsburg      CLOUDY    58  55  90 E3        29.66F
Akron          CLOUDY    61  54  77 S6        29.66S
Cleveland      CLOUDY    63  53  70 S8        29.66S
Cincinnati     MOCLDY    61  58  90 S5        29.57F
Columbus       PTCLDY    58  58  99 E3        29.59F
Detroit        CLOUDY    60  52  74 NE10      29.64F
Chicago O`Hare LGT RAIN  54  52  93 NE7       29.62F
Minneapolis    PTCLDY    48  42  80 N7        29.80S
Indianapolis   CLOUDY    60  52  74 W7        29.55F
Toronto Canada MOCLDY    57  50  77 NE6       29.71F

$$




USA.gov is the U.S. government's official web portal to all federal, state and local government web resources and services.